Regional Weather Roundup
Issued by NWS

Home | Current Version | Previous Version | Graphics & Text | Print | Product List | Glossary On
Versions: 1 2 3 4 5 6 7 8 9 10 11 12 13 14 15 16 17 18 19 20 21 22 23 24 25 26 27 28 29 30 31 32 33 34 35 36 37 38 39 40 41 42 43 44 45 46 47 48 49 50
184
ASUS44 KJAN 180110
RWRMS

MISSISSIPPI HOURLY WEATHER ROUNDUP
NATIONAL WEATHER SERVICE JACKSON MS
800 PM CDT WED SEP 17 2014

NOTE: "FAIR: INDICATES FEW OR NO CLOUDS BELOW 12,000 FEET WITH NO
SIGNIFICANT WEATHER AND/OR OBSTRUCTIONS TO VISIBILITY.

MSZ001>002-007>008-010>013-018>021-025>028-034>036-180200-
NORTHWEST MISSISSIPPI

CITY           SKY/WX    TMP DP  RH WIND       PRES   REMARKS
CLARKSDALE     FAIR      73  70  88 CALM      29.92R
CLEVELAND      FAIR      77  70  80 NE5       29.90R
GREENWOOD      MOCLDY    78  69  73 NE3       29.90F
GREENVILLE     CLEAR     79  67  66 N3        29.89F
GRENADA        FAIR      73  68  83 CALM      29.92S
OLIVE BRANCH   CLOUDY    68  68 100 CALM      29.93R
OXFORD         FAIR      70  66  88 S5        29.94F
TUNICA         CLOUDY    70  66  88 CALM      29.92R
$$

MSZ003>006-009-014>017-022>024-029>033-037>039-180200-
NORTHEAST MISSISSIPPI

CITY           SKY/WX    TMP DP  RH WIND       PRES   REMARKS
COLUMBUS AFB   CLEAR     74  67  77 E2        29.92F
CORINTH          N/A     70  63  78 CALM      29.92F
GOLDN TRIANGLE CLEAR     77  64  65 NE5       29.94S
STARKVILLE     FAIR      73  66  78 CALM      29.93S
TUPELO         PTCLDY    73  66  78 NE7       29.93F
$$

MSZ040-058-180200-
CENTRAL MISSISSIPPI

CITY           SKY/WX    TMP DP  RH WIND       PRES   REMARKS
JACKSON INTL   PTCLDY    76  71  85 SE3       29.92R
JACKSON HAWKNS CLEAR     80  69  69 CALM      29.92S
MERIDIAN KEY   PTCLDY    78  67  68 CALM      29.92R
MERIDIAN NAS   PTCLDY    78  66  66 CALM      29.92S
RAYMOND        FAIR      75  72  88 CALM      29.91S
VICKSBURG      PTCLDY    75  71  87 CALM      29.90S
$$

MSZ059>079-180200-
SOUTH MISSISSIPPI

CITY           SKY/WX    TMP DP  RH WIND       PRES   REMARKS
BROOKHAVEN     FAIR      75  73  94 CALM      29.94S
HATTIESBURG    CLEAR     81  71  71 CALM      29.92R
MCCOMB         PTCLDY    79  73  82 CALM      29.93R
NATCHEZ        PTCLDY    77  72  83 CALM      29.93R
PINE BELT      MOCLDY   N/A N/A N/A CALM      29.93R
$$

MSZ080>082-180200-
COASTAL MISSISSIPPI

CITY           SKY/WX    TMP DP  RH WIND       PRES   REMARKS
BAY ST LOUIS   CLEAR     77  72  83 CALM      29.91S
BILOXI         CLEAR     81  72  72 SW5       29.91R
PASCAGOULA     PTCLDY    77  73  87 CALM      29.91R
GULFPORT       CLEAR     80  73  79 W3        29.91R
$$



USA.gov is the U.S. government's official web portal to all federal, state and local government web resources and services.